CFG3HM LGKR-EDDM

Flight info

Callsign CFG3HM
Flight time 1h 38m
Altitude 36000
Route OLGAT DCT ABADI DCT CRAYE DCT GISAM DCT ORAKA DCT SPL DCT ALIVO DCT PENEP DCT RASTA DCT REDBU Q112 NAPSA NAPSA1B
Aircraft A320/M-SDE2FGHIJ1RWXY/LB1

Departure

Time 2026-05-06 16:03
Airport Corfu Ioannis Kapodistrias International Airport (LGKR)

Arrival

Time 2026-05-06 17:41
Airport Munich Airport (EDDM)
Time Latitude Longitude Altitude Speed Heading
2026-05-06 15:31 39.60761 19.91332 19 ft 0 kts 79°
2026-05-06 15:55 39.60758 19.91313 20 ft 4 kts 79°
2026-05-06 15:56 39.60753 19.91279 20 ft 4 kts 79°
2026-05-06 15:56 39.60748 19.91249 18 ft 2 kts 79°
2026-05-06 15:56 39.60741 19.91221 19 ft 4 kts 40°
2026-05-06 15:56 39.60719 19.91212 19 ft 3 kts 349°
2026-05-06 15:57 39.60700 19.91217 19 ft 0 kts 348°
2026-05-06 15:59 39.60701 19.91217 19 ft 1 kts 348°
2026-05-06 15:59 39.60718 19.91212 19 ft 4 kts 348°
2026-05-06 15:59 39.60754 19.91202 18 ft 7 kts 348°
2026-05-06 15:59 39.60802 19.91190 18 ft 7 kts 349°
2026-05-06 16:00 39.60843 19.91179 18 ft 6 kts 349°
2026-05-06 16:00 39.60904 19.91163 18 ft 9 kts 348°
2026-05-06 16:00 39.60958 19.91149 19 ft 7 kts 348°
2026-05-06 16:00 39.61019 19.91132 19 ft 11 kts 348°
2026-05-06 16:01 39.61096 19.91111 20 ft 11 kts 348°
2026-05-06 16:01 39.61162 19.91093 19 ft 9 kts 348°
2026-05-06 16:01 39.61207 19.91058 20 ft 7 kts 308°
2026-05-06 16:01 39.61225 19.91015 21 ft 7 kts 295°
2026-05-06 16:02 39.61219 19.90958 21 ft 6 kts 208°
2026-05-06 16:02 39.61178 19.90961 23 ft 9 kts 168°
2026-05-06 16:02 39.60925 19.91024 21 ft 74 kts 168°
2026-05-06 16:02 39.60202 19.91212 22 ft 136 kts 169°
2026-05-06 16:03 39.59146 19.91485 306 ft 160 kts 171°
2026-05-06 16:03 39.58082 19.91833 1028 ft 158 kts 153°
2026-05-06 16:03 39.57288 19.92848 1550 ft 171 kts 118°
2026-05-06 16:03 39.57087 19.94433 1880 ft 190 kts 81°
2026-05-06 16:04 39.57700 19.96003 2287 ft 206 kts 45°
2026-05-06 16:04 39.58986 19.96903 2720 ft 220 kts 11°
2026-05-06 16:04 39.60513 19.96739 3276 ft 223 kts 335°
2026-05-06 16:04 39.61696 19.95490 3949 ft 221 kts 300°
2026-05-06 16:05 39.62106 19.93627 4604 ft 216 kts 264°
2026-05-06 16:05 39.61620 19.91819 5243 ft 214 kts 237°
2026-05-06 16:05 39.60821 19.90202 5903 ft 213 kts 237°
2026-05-06 16:05 39.60221 19.88429 6456 ft 218 kts 257°
2026-05-06 16:06 39.60227 19.86476 7034 ft 220 kts 285°
2026-05-06 16:06 39.61018 19.84778 7603 ft 225 kts 315°
2026-05-06 16:06 39.62277 19.83400 7822 ft 250 kts 313°
2026-05-06 16:06 39.63528 19.81707 8199 ft 269 kts 311°
2026-05-06 16:07 39.64853 19.79935 8881 ft 275 kts 313°
2026-05-06 16:07 39.66219 19.78169 9660 ft 280 kts 313°
2026-05-06 16:07 39.67615 19.76381 10370 ft 285 kts 313°
2026-05-06 16:07 39.69077 19.74485 10615 ft 308 kts 312°
2026-05-06 16:08 39.70658 19.72404 10841 ft 329 kts 312°
2026-05-06 16:08 39.72284 19.70255 11412 ft 338 kts 312°
2026-05-06 16:08 39.73944 19.68063 12086 ft 342 kts 313°
2026-05-06 16:08 39.75617 19.65850 12779 ft 346 kts 313°
2026-05-06 16:09 39.77307 19.63606 13471 ft 350 kts 313°
2026-05-06 16:09 39.79013 19.61335 14107 ft 353 kts 313°
2026-05-06 16:09 39.80742 19.59032 14709 ft 356 kts 312°
2026-05-06 16:09 39.82480 19.56721 15326 ft 359 kts 312°
2026-05-06 16:10 39.84226 19.54398 15941 ft 361 kts 312°
2026-05-06 16:10 39.85988 19.52046 16556 ft 364 kts 312°
2026-05-06 16:10 39.87756 19.49677 17159 ft 366 kts 312°
2026-05-06 16:10 39.89535 19.47286 17785 ft 369 kts 311°
2026-05-06 16:11 39.91328 19.44872 18393 ft 371 kts 311°
2026-05-06 16:11 39.93130 19.42444 18909 ft 373 kts 311°
2026-05-06 16:11 39.94937 19.40013 19415 ft 376 kts 311°
2026-05-06 16:11 39.96763 19.37558 19913 ft 379 kts 311°
2026-05-06 16:12 39.98607 19.35080 20417 ft 382 kts 311°
2026-05-06 16:12 40.00464 19.32583 20924 ft 385 kts 311°
2026-05-06 16:12 40.02332 19.30067 21437 ft 387 kts 311°
2026-05-06 16:12 40.04213 19.27522 21911 ft 390 kts 311°
2026-05-06 16:13 40.06101 19.24959 22387 ft 393 kts 311°
2026-05-06 16:13 40.08000 19.22382 22848 ft 396 kts 311°
2026-05-06 16:13 40.09915 19.19787 23301 ft 399 kts 311°
2026-05-06 16:13 40.11847 19.17171 23727 ft 401 kts 311°
2026-05-06 16:14 40.13792 19.14537 24099 ft 404 kts 311°
2026-05-06 16:14 40.15746 19.11886 24480 ft 405 kts 311°
2026-05-06 16:14 40.17707 19.09226 24884 ft 406 kts 311°
2026-05-06 16:14 40.19660 19.06572 25270 ft 407 kts 311°
2026-05-06 16:15 40.21628 19.03893 25631 ft 408 kts 311°
2026-05-06 16:15 40.23636 19.01264 25979 ft 411 kts 316°
2026-05-06 16:15 40.25978 18.98989 26319 ft 417 kts 325°
2026-05-06 16:15 40.28543 18.97164 26645 ft 421 kts 328°
2026-05-06 16:16 40.31137 18.95369 26983 ft 422 kts 328°
2026-05-06 16:16 40.33739 18.93561 27301 ft 424 kts 328°
2026-05-06 16:16 40.36348 18.91740 27620 ft 426 kts 328°
2026-05-06 16:16 40.38967 18.89907 27927 ft 427 kts 328°
2026-05-06 16:17 40.41586 18.88068 28236 ft 429 kts 328°
2026-05-06 16:17 40.44225 18.86210 28542 ft 431 kts 328°
2026-05-06 16:17 40.46873 18.84348 28812 ft 433 kts 328°
2026-05-06 16:17 40.49531 18.82482 29083 ft 434 kts 328°
2026-05-06 16:18 40.52198 18.80612 29342 ft 436 kts 328°
2026-05-06 16:18 40.54880 18.78729 29610 ft 437 kts 328°
2026-05-06 16:18 40.57569 18.76841 29876 ft 438 kts 328°
2026-05-06 16:18 40.60252 18.74958 30202 ft 437 kts 328°
2026-05-06 16:19 40.62932 18.73073 30425 ft 437 kts 328°
2026-05-06 16:19 40.65614 18.71185 30712 ft 436 kts 328°
2026-05-06 16:19 40.68298 18.69291 30958 ft 436 kts 327°
2026-05-06 16:19 40.70966 18.67404 31202 ft 436 kts 327°
2026-05-06 16:20 40.73640 18.65509 31464 ft 436 kts 327°
2026-05-06 16:20 40.76318 18.63615 31732 ft 436 kts 328°
2026-05-06 16:20 40.78990 18.61761 31988 ft 435 kts 328°
2026-05-06 16:20 40.81683 18.59931 32256 ft 435 kts 329°
2026-05-06 16:21 40.84389 18.58115 32521 ft 435 kts 329°
2026-05-06 16:21 40.87082 18.56312 32776 ft 434 kts 329°
2026-05-06 16:21 40.89776 18.54501 33051 ft 434 kts 328°
2026-05-06 16:21 40.92463 18.52680 33295 ft 434 kts 328°
2026-05-06 16:22 40.95139 18.50859 33549 ft 433 kts 328°
2026-05-06 16:22 40.97824 18.49034 33805 ft 433 kts 328°
2026-05-06 16:22 41.00540 18.47183 34066 ft 433 kts 328°
2026-05-06 16:22 41.03207 18.45360 34294 ft 432 kts 328°
2026-05-06 16:23 41.05842 18.43554 34522 ft 431 kts 328°
2026-05-06 16:23 41.08542 18.41702 34753 ft 430 kts 328°
2026-05-06 16:23 41.11197 18.39883 35005 ft 429 kts 328°
2026-05-06 16:23 41.13848 18.38070 35238 ft 429 kts 328°
2026-05-06 16:24 41.15607 18.36867 35364 ft 429 kts 328°
2026-05-06 16:24 41.18252 18.35054 35540 ft 429 kts 328°
2026-05-06 16:24 41.20900 18.33237 35728 ft 428 kts 328°
2026-05-06 16:24 41.23547 18.31414 35916 ft 428 kts 328°
2026-05-06 16:25 41.26191 18.29586 36024 ft 428 kts 327°
2026-05-06 16:25 41.28833 18.27755 36046 ft 428 kts 327°
2026-05-06 16:25 41.34119 18.24107 36046 ft 428 kts 328°
2026-05-06 16:26 41.39412 18.20463 36040 ft 428 kts 328°
2026-05-06 16:26 41.44694 18.16809 36042 ft 428 kts 327°
2026-05-06 16:27 41.49958 18.13126 36039 ft 427 kts 325°
2026-05-06 16:27 41.54913 18.08826 36040 ft 424 kts 322°
2026-05-06 16:28 41.59863 18.04437 36047 ft 425 kts 321°
2026-05-06 16:28 41.64793 18.00071 36025 ft 426 kts 321°
2026-05-06 16:29 41.69723 17.95677 36027 ft 426 kts 321°
2026-05-06 16:29 41.74661 17.91262 36028 ft 427 kts 321°
2026-05-06 16:30 41.78770 17.87596 36024 ft 427 kts 321°
2026-05-06 16:30 41.84556 17.82423 36036 ft 428 kts 321°
2026-05-06 16:31 41.89502 17.77987 36033 ft 428 kts 321°
2026-05-06 16:31 41.94457 17.73546 36027 ft 428 kts 321°
2026-05-06 16:32 41.99414 17.69118 36029 ft 428 kts 321°
2026-05-06 16:32 42.04382 17.64684 36028 ft 428 kts 321°
2026-05-06 16:33 42.09342 17.60242 36030 ft 429 kts 321°
2026-05-06 16:34 42.16782 17.53535 36021 ft 429 kts 321°
2026-05-06 16:34 42.21737 17.49055 36020 ft 429 kts 321°
2026-05-06 16:35 42.26699 17.44581 36022 ft 429 kts 321°
2026-05-06 16:35 42.31662 17.40092 36028 ft 429 kts 321°
2026-05-06 16:36 42.36630 17.35586 36025 ft 430 kts 321°
2026-05-06 16:36 42.41629 17.31049 36014 ft 431 kts 321°
2026-05-06 16:37 42.46606 17.26523 36015 ft 431 kts 321°
2026-05-06 16:37 42.51578 17.21986 36018 ft 431 kts 321°
2026-05-06 16:38 42.56553 17.17449 36020 ft 431 kts 321°
2026-05-06 16:38 42.61526 17.12897 36025 ft 431 kts 321°
2026-05-06 16:39 42.66492 17.08328 36023 ft 431 kts 321°
2026-05-06 16:39 42.71456 17.03738 36026 ft 431 kts 320°
2026-05-06 16:40 42.76419 16.99148 36030 ft 432 kts 320°
2026-05-06 16:40 42.81394 16.94552 36033 ft 432 kts 320°
2026-05-06 16:41 42.86378 16.89941 36020 ft 433 kts 320°
2026-05-06 16:41 42.91351 16.85330 36025 ft 433 kts 320°
2026-05-06 16:42 42.96323 16.80700 36028 ft 433 kts 320°
2026-05-06 16:42 43.01302 16.76051 36040 ft 433 kts 320°
2026-05-06 16:43 43.06270 16.71410 36045 ft 433 kts 320°
2026-05-06 16:43 43.11238 16.66763 36064 ft 433 kts 320°
2026-05-06 16:44 43.16210 16.62099 36063 ft 433 kts 320°
2026-05-06 16:44 43.21192 16.57422 36074 ft 433 kts 320°
2026-05-06 16:45 43.26160 16.52747 36072 ft 433 kts 319°
2026-05-06 16:45 43.31130 16.48057 36067 ft 434 kts 319°
2026-05-06 16:46 43.36124 16.43338 36055 ft 433 kts 319°
2026-05-06 16:46 43.41086 16.38636 36033 ft 433 kts 319°
2026-05-06 16:47 43.46043 16.33927 36057 ft 433 kts 319°
2026-05-06 16:47 43.51101 16.29404 36047 ft 438 kts 325°
2026-05-06 16:48 43.56479 16.25423 36055 ft 438 kts 325°
2026-05-06 16:48 43.61835 16.21422 36034 ft 438 kts 325°
2026-05-06 16:49 43.67199 16.17402 36014 ft 438 kts 325°
2026-05-06 16:49 43.72555 16.13397 36021 ft 438 kts 325°
2026-05-06 16:50 43.77920 16.09386 36014 ft 438 kts 325°
2026-05-06 16:50 43.83276 16.05368 36000 ft 438 kts 325°
2026-05-06 16:51 43.88625 16.01341 36030 ft 437 kts 324°
2026-05-06 16:51 43.93966 15.97309 36019 ft 436 kts 324°
2026-05-06 16:52 43.99293 15.93275 36008 ft 436 kts 324°
2026-05-06 16:52 44.04620 15.89239 36005 ft 436 kts 324°
2026-05-06 16:53 44.09958 15.85196 36006 ft 436 kts 324°
2026-05-06 16:53 44.15278 15.81149 36007 ft 436 kts 324°
2026-05-06 16:54 44.20602 15.77103 36013 ft 436 kts 324°
2026-05-06 16:54 44.25952 15.73018 36006 ft 436 kts 324°
2026-05-06 16:55 44.31276 15.68938 36011 ft 436 kts 324°
2026-05-06 16:55 44.36596 15.64852 35997 ft 436 kts 324°
2026-05-06 16:56 44.41922 15.60762 35991 ft 437 kts 324°
2026-05-06 16:56 44.47248 15.56657 35989 ft 437 kts 324°
2026-05-06 16:57 44.52582 15.52543 35999 ft 438 kts 325°
2026-05-06 16:57 44.57024 15.49109 35971 ft 439 kts 325°
2026-05-06 16:58 44.62377 15.44966 35964 ft 440 kts 325°
2026-05-06 16:58 44.67730 15.40810 35954 ft 440 kts 325°
2026-05-06 16:59 44.73128 15.36606 35954 ft 440 kts 325°
2026-05-06 16:59 44.78491 15.32424 35962 ft 441 kts 326°
2026-05-06 17:00 44.83849 15.28231 35946 ft 442 kts 326°
2026-05-06 17:00 44.89232 15.24019 35949 ft 443 kts 326°
2026-05-06 17:01 44.94624 15.19796 35946 ft 444 kts 326°
2026-05-06 17:01 45.00023 15.15551 35955 ft 444 kts 326°
2026-05-06 17:02 45.05411 15.11302 35960 ft 443 kts 326°
2026-05-06 17:02 45.10785 15.07052 35955 ft 443 kts 326°
2026-05-06 17:03 45.16158 15.02793 35952 ft 442 kts 326°
2026-05-06 17:03 45.21524 14.98540 35964 ft 442 kts 325°
2026-05-06 17:04 45.26898 14.94272 35962 ft 443 kts 325°
2026-05-06 17:04 45.32270 14.89994 35957 ft 442 kts 325°
2026-05-06 17:05 45.37637 14.85707 35941 ft 442 kts 325°
2026-05-06 17:05 45.43001 14.81420 35957 ft 443 kts 324°
2026-05-06 17:06 45.48379 14.77105 35936 ft 443 kts 324°
2026-05-06 17:06 45.53787 14.72782 35931 ft 444 kts 326°
2026-05-06 17:07 45.59307 14.68765 35943 ft 446 kts 328°
2026-05-06 17:07 45.64889 14.64903 35940 ft 446 kts 328°
2026-05-06 17:08 45.70468 14.60976 35932 ft 446 kts 327°
2026-05-06 17:08 45.76019 14.56968 35920 ft 447 kts 327°
2026-05-06 17:09 45.81573 14.52945 35915 ft 448 kts 327°
2026-05-06 17:09 45.87141 14.48915 35914 ft 448 kts 327°
2026-05-06 17:10 45.92709 14.44881 35918 ft 449 kts 327°
2026-05-06 17:10 45.98283 14.40839 35916 ft 449 kts 327°
2026-05-06 17:11 46.03864 14.36782 35916 ft 450 kts 327°
2026-05-06 17:11 46.09441 14.32706 35910 ft 450 kts 327°
2026-05-06 17:12 46.15036 14.28637 35906 ft 452 kts 328°
2026-05-06 17:12 46.20749 14.24837 35908 ft 454 kts 330°
2026-05-06 17:13 46.26534 14.21159 35907 ft 454 kts 330°
2026-05-06 17:13 46.32289 14.17429 35900 ft 454 kts 330°
2026-05-06 17:14 46.38068 14.13607 35907 ft 454 kts 330°
2026-05-06 17:14 46.43805 14.09788 35874 ft 454 kts 330°
2026-05-06 17:15 46.49557 14.05960 35870 ft 455 kts 330°
2026-05-06 17:15 46.55309 14.02138 35872 ft 455 kts 330°
2026-05-06 17:16 46.61063 13.98310 35869 ft 455 kts 330°
2026-05-06 17:16 46.66822 13.94461 35871 ft 455 kts 330°
2026-05-06 17:17 46.72582 13.90596 35889 ft 455 kts 329°
2026-05-06 17:17 46.78328 13.86732 35889 ft 455 kts 329°
2026-05-06 17:18 46.84079 13.82875 35877 ft 455 kts 329°
2026-05-06 17:18 46.89818 13.79008 35870 ft 454 kts 329°
2026-05-06 17:19 46.95550 13.75127 35866 ft 454 kts 329°
2026-05-06 17:19 47.01277 13.71239 35868 ft 454 kts 328°
2026-05-06 17:20 47.07019 13.67335 35861 ft 455 kts 328°
2026-05-06 17:20 47.12754 13.63418 35745 ft 458 kts 328°
2026-05-06 17:20 47.15651 13.61434 35332 ft 459 kts 328°
2026-05-06 17:21 47.18544 13.59454 34727 ft 460 kts 328°
2026-05-06 17:21 47.21451 13.57465 34030 ft 462 kts 328°
2026-05-06 17:21 47.24412 13.55441 33130 ft 465 kts 327°
2026-05-06 17:21 47.27315 13.53461 32202 ft 467 kts 328°
2026-05-06 17:22 47.30305 13.51419 31491 ft 465 kts 328°
2026-05-06 17:22 47.33231 13.49418 30908 ft 462 kts 328°
2026-05-06 17:22 47.36132 13.47431 30268 ft 458 kts 327°
2026-05-06 17:22 47.39004 13.45451 29663 ft 454 kts 328°
2026-05-06 17:23 47.41852 13.43480 29120 ft 448 kts 328°
2026-05-06 17:23 47.44647 13.41542 28442 ft 440 kts 327°
2026-05-06 17:23 47.47414 13.39622 27413 ft 439 kts 327°
2026-05-06 17:23 47.50047 13.37410 26627 ft 431 kts 317°
2026-05-06 17:24 47.52382 13.34706 25871 ft 427 kts 313°
2026-05-06 17:24 47.54673 13.31909 25101 ft 425 kts 314°
2026-05-06 17:24 47.56948 13.29153 24380 ft 422 kts 314°
2026-05-06 17:24 47.59221 13.26400 23678 ft 423 kts 314°
2026-05-06 17:25 47.61503 13.23635 22920 ft 424 kts 314°
2026-05-06 17:25 47.63786 13.20866 22100 ft 424 kts 315°
2026-05-06 17:25 47.66071 13.18091 21303 ft 424 kts 315°
2026-05-06 17:25 47.68347 13.15321 20549 ft 424 kts 315°
2026-05-06 17:26 47.70626 13.12537 19824 ft 424 kts 315°
2026-05-06 17:26 47.72903 13.09750 19157 ft 424 kts 315°
2026-05-06 17:26 47.75177 13.06963 18434 ft 424 kts 315°
2026-05-06 17:26 47.77451 13.04176 17689 ft 424 kts 315°
2026-05-06 17:27 47.79721 13.01390 16896 ft 423 kts 315°
2026-05-06 17:27 47.82000 12.98612 16099 ft 422 kts 316°
2026-05-06 17:27 47.84290 12.95844 15579 ft 416 kts 316°
2026-05-06 17:27 47.86492 12.93186 15088 ft 410 kts 316°
2026-05-06 17:28 47.88726 12.90494 14598 ft 404 kts 316°
2026-05-06 17:28 47.90865 12.87916 14118 ft 399 kts 316°
2026-05-06 17:28 47.93036 12.85299 13629 ft 393 kts 316°
2026-05-06 17:28 47.95145 12.82753 13113 ft 388 kts 316°
2026-05-06 17:29 47.97221 12.80235 12626 ft 382 kts 316°
2026-05-06 17:29 47.98565 12.78564 12282 ft 378 kts 316°
2026-05-06 17:29 48.00563 12.76047 11770 ft 373 kts 316°
2026-05-06 17:29 48.02526 12.73575 11371 ft 365 kts 316°
2026-05-06 17:30 48.04451 12.71157 10990 ft 358 kts 316°
2026-05-06 17:30 48.06337 12.68792 10615 ft 350 kts 315°
2026-05-06 17:30 48.08012 12.66241 10267 ft 339 kts 306°
2026-05-06 17:30 48.09526 12.63607 10025 ft 330 kts 306°
2026-05-06 17:31 48.11007 12.61011 9783 ft 327 kts 306°
2026-05-06 17:31 48.12484 12.58422 9509 ft 324 kts 306°
2026-05-06 17:31 48.13938 12.55870 9042 ft 322 kts 306°
2026-05-06 17:31 48.15401 12.53285 8570 ft 320 kts 306°
2026-05-06 17:32 48.16828 12.50734 8093 ft 319 kts 306°
2026-05-06 17:32 48.18233 12.48183 7683 ft 318 kts 306°
2026-05-06 17:32 48.19627 12.45616 7309 ft 317 kts 306°
2026-05-06 17:32 48.21004 12.43041 6944 ft 316 kts 306°
2026-05-06 17:33 48.22366 12.40466 6603 ft 314 kts 306°
2026-05-06 17:33 48.23680 12.37854 6239 ft 312 kts 302°
2026-05-06 17:33 48.24871 12.35186 5923 ft 304 kts 300°
2026-05-06 17:33 48.25994 12.32560 5663 ft 294 kts 300°
2026-05-06 17:34 48.27072 12.29998 5411 ft 285 kts 300°
2026-05-06 17:34 48.28112 12.27513 5163 ft 280 kts 300°
2026-05-06 17:34 48.29146 12.25048 5025 ft 278 kts 300°
2026-05-06 17:34 48.30181 12.22588 4903 ft 278 kts 301°
2026-05-06 17:35 48.31197 12.20185 4769 ft 266 kts 301°
2026-05-06 17:35 48.32165 12.17899 4653 ft 253 kts 301°
2026-05-06 17:35 48.33085 12.15726 4535 ft 242 kts 301°
2026-05-06 17:36 48.34816 12.11632 4284 ft 223 kts 301°
2026-05-06 17:36 48.35628 12.09713 4165 ft 212 kts 299°
2026-05-06 17:36 48.36252 12.07792 4059 ft 198 kts 282°
2026-05-06 17:36 48.36383 12.05814 4001 ft 186 kts 264°
2026-05-06 17:37 48.36238 12.03878 4001 ft 186 kts 263°
2026-05-06 17:37 48.36097 12.01967 4007 ft 182 kts 264°
2026-05-06 17:37 48.35965 12.00177 4003 ft 164 kts 263°
2026-05-06 17:37 48.35842 11.98526 3852 ft 155 kts 263°
2026-05-06 17:38 48.35723 11.96945 3672 ft 149 kts 263°
2026-05-06 17:38 48.35605 11.95370 3487 ft 150 kts 264°
2026-05-06 17:38 48.35489 11.93820 3297 ft 148 kts 263°
2026-05-06 17:38 48.35377 11.92336 3119 ft 139 kts 264°
2026-05-06 17:39 48.35269 11.90899 2933 ft 137 kts 264°
2026-05-06 17:39 48.35163 11.89476 2742 ft 136 kts 264°
2026-05-06 17:39 48.35058 11.88065 2515 ft 136 kts 264°
2026-05-06 17:39 48.34951 11.86660 2357 ft 135 kts 262°
2026-05-06 17:40 48.34849 11.85256 2167 ft 136 kts 262°
2026-05-06 17:40 48.34738 11.83827 1968 ft 137 kts 261°
2026-05-06 17:40 48.34628 11.82422 1774 ft 134 kts 261°
2026-05-06 17:40 48.34524 11.81035 1601 ft 133 kts 261°
2026-05-06 17:41 48.34420 11.79669 1488 ft 124 kts 262°
2026-05-06 17:41 48.34339 11.78637 1485 ft 70 kts 264°
2026-05-06 17:41 48.34312 11.78067 1485 ft 39 kts 277°
2026-05-06 17:41 48.34382 11.77763 1482 ft 27 kts 294°
2026-05-06 17:42 48.34437 11.77575 1475 ft 14 kts 292°
2026-05-06 17:42 48.34442 11.77554 1482 ft 0 kts 292°
2026-05-06 17:44 48.34452 11.77522 1475 ft 9 kts 295°
2026-05-06 17:44 48.34502 11.77448 1485 ft 11 kts 336°
2026-05-06 17:45 48.34567 11.77429 1475 ft 8 kts 353°
2026-05-06 17:45 48.34617 11.77439 1480 ft 7 kts 34°
2026-05-06 17:45 48.34632 11.77494 1485 ft 6 kts 81°
2026-05-06 17:45 48.34638 11.77568 1479 ft 8 kts 83°
2026-05-06 17:46 48.34647 11.77677 1481 ft 10 kts 83°
2026-05-06 17:46 48.34654 11.77777 1478 ft 9 kts 84°
2026-05-06 17:46 48.34664 11.77861 1485 ft 7 kts 65°
2026-05-06 17:46 48.34701 11.77892 1485 ft 6 kts
2026-05-06 17:47 48.34737 11.77888 1485 ft 5 kts 353°
2026-05-06 17:47 48.34762 11.77884 1481 ft 3 kts 353°
2026-05-06 17:47 48.34780 11.77880 1483 ft 2 kts 353°
2026-05-06 17:47 48.34789 11.77879 1485 ft 1 kts 353°
2026-05-06 17:48 48.34791 11.77878 1485 ft 0 kts 353°
2026-05-06 17:50 48.34830 11.77878 1476 ft 10 kts
2026-05-06 17:50 48.34892 11.77892 1485 ft 8 kts
2026-05-06 17:50 48.34957 11.77886 1476 ft 12 kts 353°
2026-05-06 17:51 48.35032 11.77873 1481 ft 10 kts 353°
2026-05-06 17:51 48.35096 11.77861 1485 ft 9 kts 353°
2026-05-06 17:51 48.35161 11.77861 1485 ft 9 kts 20°
2026-05-06 17:51 48.35186 11.77928 1473 ft 7 kts 83°
2026-05-06 17:52 48.35191 11.78001 1485 ft 9 kts 83°
2026-05-06 17:52 48.35197 11.78084 1485 ft 7 kts 83°
2026-05-06 17:52 48.35188 11.78147 1478 ft 6 kts 127°
2026-05-06 17:52 48.35142 11.78170 1477 ft 8 kts 173°
2026-05-06 17:53 48.35080 11.78181 1476 ft 10 kts 173°
2026-05-06 17:53 48.35006 11.78195 1482 ft 11 kts 168°
2026-05-06 17:53 48.34949 11.78237 1485 ft 6 kts 136°
2026-05-06 17:53 48.34942 11.78292 1479 ft 5 kts 83°
2026-05-06 17:54 48.34945 11.78335 1482 ft 4 kts 83°
2026-05-06 17:54 48.34948 11.78369 1476 ft 3 kts 83°
2026-05-06 17:54 48.34948 11.78374 1478 ft 0 kts 83°